Location: Newark
(48.8604°N, 2.3376°E)
Time: 20:26:46
(UTC+00:00)

Envisat - Pass Details

Date: 06 October 2021
Orbit: 764 x 766 km, 98.2° (Epoch: 20 October)

Event Time Altitude Azimuth Distance (km) Brightness Sun altitude
Rises 03:47:19 0° 27° (NNE) 3,242 6.9 -22.0°
Reaches altitude 10° 03:50:23 10° 46° (NE) 2,310 6.4 -21.5°
Maximum altitude 03:53:50 18° 89° (E) 1,805 5.8 -21.0°
Drops below altitude 10° 03:57:16 10° 132° (SE) 2,298 5.9 -20.4°
Sets 04:00:16 0° 151° (SSE) 3,218 6.4 -19.9°
